• In Netherlands
  • List of Countries
  • For 7 days
  • Water Temperature
  • Satellite Maps
  • Weather Map
  • Weather Widgets
  • user-avatar
    Login

    Hourly Weather Tyrgowishte

    Today, 18 October, Wednesday

    Time Temperature Precipitation Wind Pressure Humidity
    00:00 +18°C° 0 mm 1 mps 750 mmHg 58%
    01:00 +16°C° 0 mm 1 mps 750 mmHg 59%
    02:00 +16°C° 0 mm 1 mps 750 mmHg 62%
    03:00 +16°C° 0 mm 1 mps 750 mmHg 62%
    04:00 +15°C° 0 mm 1 mps 749 mmHg 63%
    05:00 +15°C° 0 mm 1 mps 749 mmHg 63%
    06:00 +16°C° 0 mm 1 mps 749 mmHg 62%
    07:00 +18°C° 0 mm 1 mps 749 mmHg 60%
    08:00 +19°C° 0 mm 1 mps 749 mmHg 55%
    09:00 +21°C° 0 mm 1 mps 749 mmHg 48%
    10:00 +23°C° 0 mm 1 mps 749 mmHg 42%
    11:00 +25°C° 0 mm 1 mps 749 mmHg 36%
    12:00 +26°C° 0 mm 2 mps 749 mmHg 33%
    13:00 +27°C° 0 mm 2 mps 748 mmHg 31%
    14:00 +27°C° 0 mm 2 mps 748 mmHg 28%
    15:00 +26°C° 0 mm 2 mps 748 mmHg 32%
    16:00 +25°C° 0 mm 2 mps 747 mmHg 35%
    17:00 +23°C° 0 mm 2 mps 747 mmHg 39%
    18:00 +21°C° 0 mm 2 mps 747 mmHg 42%
    19:00 +19°C° 0 mm 2 mps 747 mmHg 45%
    20:00 +18°C° 0 mm 2 mps 747 mmHg 48%
    21:00 +17°C° 0 mm 2 mps 747 mmHg 49%
    22:00 +17°C° 0 mm 2 mps 747 mmHg 50%
    23:00 +16°C° 0 mm 2 mps 747 mmHg 51%

    Tomorrow, 19 October, Thursday

    Time Temperature Precipitation Wind Pressure Humidity
    00:00 +16°C° 0 mm 2 mps 746 mmHg 52%
    01:00 +16°C° 0 mm 2 mps 746 mmHg 53%
    02:00 +15°C° 0 mm 2 mps 746 mmHg 54%
    03:00 +15°C° 0 mm 1 mps 746 mmHg 54%
    04:00 +15°C° 0 mm 1 mps 746 mmHg 55%
    05:00 +14°C° 0 mm 1 mps 745 mmHg 55%
    06:00 +15°C° 0 mm 1 mps 745 mmHg 54%
    07:00 +16°C° 0 mm 1 mps 745 mmHg 53%
    08:00 +16°C° 0 mm 1 mps 746 mmHg 52%
    09:00 +20°C° 0 mm 1 mps 746 mmHg 45%
    10:00 +22°C° 0 mm 1 mps 746 mmHg 39%
    11:00 +25°C° 0 mm 1 mps 746 mmHg 32%
    12:00 +25°C° 0 mm 1 mps 745 mmHg 30%
    13:00 +26°C° 0 mm 2 mps 745 mmHg 28%
    14:00 +27°C° 0 mm 2 mps 745 mmHg 26%
    15:00 +25°C° 0 mm 1 mps 745 mmHg 30%
    16:00 +24°C° 0 mm 1 mps 744 mmHg 33%
    17:00 +23°C° 0 mm 1 mps 744 mmHg 37%
    18:00 +21°C° 0 mm 1 mps 744 mmHg 40%
    19:00 +20°C° 0 mm 1 mps 745 mmHg 43%
    20:00 +19°C° 0 mm 1 mps 745 mmHg 47%
    21:00 +18°C° 0 mm 1 mps 745 mmHg 48%
    22:00 +18°C° 0 mm 1 mps 745 mmHg 50%
    23:00 +16°C° 0 mm 1 mps 745 mmHg 51%

    Day after tomorrow, 20 October, Friday

    Time Temperature Precipitation Wind Pressure Humidity
    00:00 +16°C° 0 mm 1 mps 745 mmHg 52%
    01:00 +16°C° 0 mm 1 mps 745 mmHg 52%
    02:00 +15°C° 0 mm 1 mps 745 mmHg 52%
    03:00 +15°C° 0 mm 1 mps 744 mmHg 53%
    04:00 +15°C° 0 mm 1 mps 744 mmHg 53%
    05:00 +15°C° 0 mm 1 mps 744 mmHg 53%
    06:00 +15°C° 0 mm 1 mps 744 mmHg 52%
    07:00 +16°C° 0 mm 1 mps 745 mmHg 52%
    08:00 +18°C° 0 mm 1 mps 745 mmHg 51%
    09:00 +20°C° 0 mm 1 mps 745 mmHg 46%
    10:00 +22°C° 0 mm 1 mps 745 mmHg 41%
    11:00 +25°C° 0 mm 1 mps 745 mmHg 36%
    12:00 +25°C° 0 mm 2 mps 745 mmHg 35%
    13:00 +26°C° 0 mm 2 mps 745 mmHg 34%
    14:00 +26°C° 0 mm 2 mps 745 mmHg 33%
    15:00 +25°C° 0 mm 2 mps 745 mmHg 37%
    16:00 +24°C° 0 mm 1 mps 744 mmHg 41%
    17:00 +22°C° 0 mm 1 mps 744 mmHg 45%
    18:00 +21°C° 0 mm 1 mps 745 mmHg 48%
    19:00 +20°C° 0 mm 1 mps 745 mmHg 52%
    20:00 +17°C° 0 mm 0 mps 745 mmHg 55%
    21:00 +17°C° 0 mm 0 mps 745 mmHg 56%
    22:00 +18°C° 0 mm 1 mps 746 mmHg 58%
    23:00 +18°C° 0 mm 1 mps 746 mmHg 59%

    21 October, Saturday

    Time Temperature Precipitation Wind Pressure Humidity
    00:00 +16°C° 0 mm 1 mps 746 mmHg 60%
    01:00 +16°C° 0 mm 1 mps 746 mmHg 61%
    02:00 +16°C° 0 mm 1 mps 746 mmHg 62%
    03:00 +15°C° 0 mm 1 mps 746 mmHg 64%
    04:00 +15°C° 0 mm 1 mps 746 mmHg 65%
    05:00 +15°C° 0 mm 1 mps 746 mmHg 67%
    06:00 +15°C° 0 mm 1 mps 746 mmHg 66%
    07:00 +16°C° 0 mm 1 mps 746 mmHg 65%
    08:00 +16°C° 0 mm 1 mps 746 mmHg 64%
    09:00 +19°C° 0 mm 1 mps 747 mmHg 58%
    10:00 +20°C° 0 mm 2 mps 747 mmHg 52%
    11:00 +21°C° 0 mm 2 mps 747 mmHg 46%
    12:00 +22°C° 0 mm 3 mps 747 mmHg 44%
    13:00 +24°C° 0 mm 3 mps 746 mmHg 42%
    14:00 +24°C° 0 mm 3 mps 746 mmHg 40%
    15:00 +22°C° 0 mm 3 mps 746 mmHg 44%
    16:00 +21°C° 0 mm 2 mps 746 mmHg 49%
    17:00 +20°C° 0 mm 2 mps 746 mmHg 53%
    18:00 +19°C° 0 mm 2 mps 746 mmHg 59%
    19:00 +17°C° 0 mm 2 mps 747 mmHg 65%
    20:00 +16°C° 0 mm 2 mps 747 mmHg 71%
    21:00 +15°C° 0 mm 2 mps 747 mmHg 76%
    22:00 +15°C° 0 mm 2 mps 747 mmHg 80%
    23:00 +14°C° 0 mm 1 mps 747 mmHg 85%

    22 October, Sunday

    Time Temperature Precipitation Wind Pressure Humidity
    00:00 +14°C° 0 mm 1 mps 747 mmHg 87%
    01:00 +14°C° 0 mm 1 mps 747 mmHg 89%
    02:00 +13°C° 0 mm 1 mps 747 mmHg 91%
    03:00 +13°C° 0 mm 1 mps 747 mmHg 92%
    04:00 +13°C° 0 mm 1 mps 747 mmHg 92%
    05:00 +12°C° 0 mm 1 mps 747 mmHg 93%
    06:00 +13°C° 0 mm 1 mps 747 mmHg 91%
    07:00 +13°C° 0 mm 1 mps 747 mmHg 89%
    08:00 +14°C° 0 mm 1 mps 747 mmHg 87%
    09:00 +16°C° 0 mm 2 mps 747 mmHg 77%
    10:00 +17°C° 0 mm 2 mps 747 mmHg 68%
    11:00 +19°C° 0 mm 2 mps 747 mmHg 58%
    12:00 +20°C° 0 mm 2 mps 746 mmHg 54%
    13:00 +21°C° 0 mm 2 mps 746 mmHg 50%
    14:00 +21°C° 0 mm 2 mps 745 mmHg 47%
    15:00 +20°C° 0 mm 2 mps 745 mmHg 51%
    16:00 +19°C° 0 mm 2 mps 745 mmHg 55%
    17:00 +18°C° 0 mm 2 mps 745 mmHg 59%
    18:00 +17°C° 0 mm 2 mps 745 mmHg 66%
    19:00 +16°C° 0 mm 2 mps 745 mmHg 73%
    20:00 +15°C° 0 mm 2 mps 745 mmHg 81%
    21:00 +14°C° 0 mm 2 mps 744 mmHg 85%
    22:00 +14°C° 0 mm 2 mps 744 mmHg 88%
    23:00 +13°C° 0 mm 2 mps 744 mmHg 92%

    23 October, Monday

    Time Temperature Precipitation Wind Pressure Humidity
    00:00 +13°C° 0 mm 2 mps 744 mmHg 93%
    01:00 +13°C° 0 mm 2 mps 743 mmHg 93%
    02:00 +13°C° 0 mm 2 mps 743 mmHg 94%
    03:00 +13°C° 0 mm 2 mps 743 mmHg 94%
    04:00 +13°C° 0 mm 2 mps 743 mmHg 94%
    05:00 +13°C° 0 mm 2 mps 742 mmHg 94%
    06:00 +13°C° 0 mm 3 mps 742 mmHg 91%
    07:00 +13°C° 0 mm 3 mps 742 mmHg 89%
    08:00 +14°C° 0 mm 4 mps 742 mmHg 87%
    09:00 +15°C° 0 mm 4 mps 742 mmHg 80%
    10:00 +17°C° 0 mm 4 mps 742 mmHg 74%
    11:00 +17°C° 0 mm 5 mps 742 mmHg 67%
    12:00 +17°C° 0 mm 5 mps 742 mmHg 65%
    13:00 +17°C° 0 mm 5 mps 741 mmHg 62%
    14:00 +19°C° 0 mm 5 mps 741 mmHg 60%
    15:00 +17°C° 0 mm 5 mps 741 mmHg 63%
    16:00 +17°C° 0 mm 4 mps 741 mmHg 66%
    17:00 +15°C° 0 mm 4 mps 741 mmHg 70%
    18:00 +15°C° 0 mm 4 mps 741 mmHg 74%
    19:00 +14°C° 0 mm 4 mps 741 mmHg 79%
    20:00 +13°C° 0 mm 4 mps 741 mmHg 83%
    21:00 +13°C° 0 mm 4 mps 741 mmHg 85%
    22:00 +13°C° 0 mm 4 mps 741 mmHg 87%
    23:00 +13°C° 0 mm 4 mps 741 mmHg 88%
    Show more